N256CH KVNY-KSMO

Flight info

Callsign N256CH
Flight time 0h 10m
Altitude 5000
Route VNY V186 DARTS(BURP6..-.J=50.M=50.P=50.Q=50)
Aircraft C750/M-VGDW/C

Departure

Time 2026-05-03 20:36
Airport Van Nuys Airport (KVNY)

Arrival

Time 2026-05-03 20:46
Airport Santa Monica Municipal Airport (KSMO)
Time Latitude Longitude Altitude Speed Heading
2026-05-03 20:22 34.21937 -118.49673 811 ft 0 kts 51°
2026-05-03 20:28 34.21935 -118.49676 811 ft 3 kts 51°
2026-05-03 20:28 34.21919 -118.49702 810 ft 4 kts 72°
2026-05-03 20:28 34.21918 -118.49721 810 ft 0 kts 115°
2026-05-03 20:32 34.21916 -118.49717 810 ft 2 kts 123°
2026-05-03 20:33 34.21900 -118.49701 811 ft 4 kts 147°
2026-05-03 20:33 34.21858 -118.49690 810 ft 9 kts 175°
2026-05-03 20:33 34.21783 -118.49675 808 ft 13 kts 149°
2026-05-03 20:33 34.21762 -118.49568 807 ft 14 kts 91°
2026-05-03 20:34 34.21745 -118.49450 804 ft 15 kts 98°
2026-05-03 20:34 34.21729 -118.49323 802 ft 15 kts 98°
2026-05-03 20:34 34.21742 -118.49233 802 ft 10 kts 29°
2026-05-03 20:34 34.21802 -118.49234 803 ft 8 kts 355°
2026-05-03 20:35 34.21857 -118.49226 805 ft 8 kts 32°
2026-05-03 20:35 34.21876 -118.49162 805 ft 9 kts 101°
2026-05-03 20:35 34.21817 -118.49114 803 ft 14 kts 176°
2026-05-03 20:35 34.21429 -118.49081 792 ft 112 kts 175°
2026-05-03 20:36 34.20481 -118.49009 1152 ft 143 kts 178°
2026-05-03 20:36 34.19476 -118.49049 1870 ft 147 kts 194°
2026-05-03 20:36 34.18497 -118.49488 2561 ft 157 kts 203°
2026-05-03 20:36 34.17433 -118.49990 3027 ft 171 kts 202°
2026-05-03 20:37 34.16275 -118.50488 3470 ft 183 kts 201°
2026-05-03 20:37 34.15063 -118.51056 3924 ft 188 kts 205°
2026-05-03 20:37 34.14147 -118.52118 4495 ft 186 kts 243°
2026-05-03 20:37 34.13988 -118.53663 4866 ft 196 kts 281°
2026-05-03 20:38 34.14745 -118.55095 4998 ft 219 kts 321°
2026-05-03 20:38 34.16254 -118.55633 5028 ft 241 kts
2026-05-03 20:38 34.17847 -118.54872 5035 ft 260 kts 37°
2026-05-03 20:38 34.19085 -118.53238 5120 ft 269 kts 50°
2026-05-03 20:39 34.20216 -118.51507 5088 ft 251 kts 51°
2026-05-03 20:39 34.20910 -118.50436 5066 ft 238 kts 51°
2026-05-03 20:39 34.22211 -118.48426 5048 ft 217 kts 51°
2026-05-03 20:39 34.22724 -118.46784 4889 ft 211 kts 90°
2026-05-03 20:40 34.22246 -118.45173 4912 ft 199 kts 121°
2026-05-03 20:40 34.21532 -118.43754 4781 ft 200 kts 122°
2026-05-03 20:40 34.21052 -118.42785 4625 ft 205 kts 121°
2026-05-03 20:40 34.20308 -118.41280 4374 ft 211 kts 121°
2026-05-03 20:41 34.19581 -118.39816 4264 ft 197 kts 121°
2026-05-03 20:41 34.18883 -118.38397 3960 ft 196 kts 121°
2026-05-03 20:41 34.18188 -118.36985 3651 ft 195 kts 121°
2026-05-03 20:41 34.17498 -118.35586 3349 ft 193 kts 121°
2026-05-03 20:42 34.16808 -118.34198 3046 ft 192 kts 122°
2026-05-03 20:42 34.15902 -118.33191 2940 ft 173 kts 163°
2026-05-03 20:42 34.14761 -118.33245 2956 ft 158 kts 193°
2026-05-03 20:42 34.13710 -118.33495 3060 ft 152 kts 192°
2026-05-03 20:43 34.12611 -118.33734 3063 ft 170 kts 192°
2026-05-03 20:43 34.11397 -118.34035 3043 ft 183 kts 195°
2026-05-03 20:43 34.10273 -118.34748 2837 ft 188 kts 222°
2026-05-03 20:43 34.09396 -118.35976 2583 ft 192 kts 230°
2026-05-03 20:44 34.08462 -118.37173 2194 ft 195 kts 225°
2026-05-03 20:44 34.07497 -118.38254 1933 ft 187 kts 222°
2026-05-03 20:44 34.06543 -118.39305 1642 ft 184 kts 223°
2026-05-03 20:44 34.05629 -118.40361 1361 ft 181 kts 224°
2026-05-03 20:45 34.04788 -118.41355 1070 ft 153 kts 225°
2026-05-03 20:45 34.04078 -118.42188 847 ft 137 kts 225°
2026-05-03 20:45 34.03421 -118.42977 648 ft 132 kts 225°
2026-05-03 20:45 34.02762 -118.43749 447 ft 129 kts 224°
2026-05-03 20:46 34.02136 -118.44479 251 ft 126 kts 224°
2026-05-03 20:46 34.01567 -118.45156 155 ft 79 kts 222°
2026-05-03 20:46 34.01347 -118.45404 146 ft 25 kts 224°
2026-05-03 20:46 34.01292 -118.45400 143 ft 0 kts 135°
2026-05-03 20:47 34.01291 -118.45399 143 ft 0 kts 135°
2026-05-03 20:47 34.01290 -118.45398 143 ft 2 kts 135°
2026-05-03 20:47 34.01273 -118.45358 143 ft 7 kts 99°
2026-05-03 20:47 34.01281 -118.45305 142 ft 6 kts 63°
2026-05-03 20:48 34.01307 -118.45274 143 ft 4 kts 43°
2026-05-03 20:48 34.01324 -118.45254 143 ft 2 kts 43°
2026-05-03 20:48 34.01327 -118.45242 143 ft 2 kts 98°
2026-05-03 20:48 34.01318 -118.45228 143 ft 1 kts 131°